Location: Newark
(35.1044°N, 77.3364°W)
Time: 23:17:08
(UTC+00:00)

Envisat - Visible Passes

Search period start: 08 December 2019 00:00
Search period end: 18 December 2019 00:00
Orbit: 764 x 766 km, 98.1° (Epoch: 08 December)

Date Brightness Start Highest point End Pass type
(mag) Time Alt. Az. Time Alt. Az. Time Alt. Az.
08 Dec 5.9 00:28:39 10° SW 00:31:37 15° W 00:34:34 10° WNW visible
08 Dec 5.7 11:00:19 10° NE 11:04:16 23° E 11:08:12 10° SE visible
08 Dec 4.5 23:49:57 10° SSW 23:54:36 37° W 23:59:17 10° NNW visible
09 Dec 3.0 23:12:42 10° SSE 23:17:46 88° WSW 23:22:52 10° NNW visible
10 Dec 4.5 11:25:06 10° NNE 11:29:54 41° E 11:34:40 10° SSE visible
10 Dec 3.4 22:36:27 10° SE 22:41:08 39° ENE 22:45:50 10° N visible
11 Dec 5.5 00:16:34 10° SW 00:20:14 20° W 00:23:56 10° NW visible
11 Dec 5.9 10:49:34 10° NE 10:52:55 17° E 10:56:14 10° SE visible
11 Dec 4.0 23:38:25 10° S 23:43:17 47° W 23:48:11 10° NNW visible
12 Dec 2.9 23:01:28 10° SSE 23:06:31 72° ENE 23:11:34 10° N visible
13 Dec 6.2 00:45:14 10° W 00:45:59 10° W 00:46:43 10° W visible
13 Dec 5.0 11:14:03 10° NE 11:18:34 32° E 11:23:05 10° SSE visible
13 Dec 3.7 22:25:32 10° SE 22:29:56 31° ENE 22:34:20 10° N visible
14 Dec 5.1 00:04:42 10° SSW 00:08:53 26° W 00:13:06 10° NW visible
14 Dec 6.1 10:39:08 10° ENE 10:41:32 13° E 10:43:56 10° ESE visible
14 Dec 3.5 23:26:59 10° S 23:31:59 62° W 23:37:01 10° NNW visible
15 Dec 3.8 11:39:07 10° NNE 11:44:09 59° E 11:49:08 10° S visible
15 Dec 3.1 22:50:20 10° SSE 22:55:16 56° ENE 23:00:14 10° N visible
16 Dec 6.0 00:32:01 10° WSW 00:34:34 14° W 00:37:10 10° WNW visible
16 Dec 5.5 11:03:05 10° NE 11:07:14 25° E 11:11:21 10° SSE visible
16 Dec 4.7 23:53:00 10° SSW 23:57:32 33° W 00:02:07 10° NNW visible
17 Dec 3.1 23:15:38 10° S 23:20:42 80° WSW 23:25:48 10° NNW visible
